This demonstration page uses our WeatherBlox Daily Observations layout. Learn more.

Left ArrowRight Arrow

31.31129, -92.44514

Hourly Observations for December 28, 2021

Temp ( °F °C ) Dew Point ( °F °C ) Humidity (%) Winds ( mph kmh ) Pressure ( in mb ) Visibility ( mi km ) Precip ( " mm )
12:53 am 00:53 Cloudy 64 17.8 61 16.1 90 90 SE 6 9 29.83 1010 10 16 0.00 0.00
1:53 am 01:53 Clear 63 17.2 60 15.6 90 90 SE 7 11 29.80 1009 9 14 0.00 0.00
2:53 am 02:53 Partly Cloudy 64 17.8 62 16.7 93 93 SE 8 13 29.77 1008 9 14 0.00 0.00
3:53 am 03:53 Partly Cloudy 65 18.3 62 16.7 90 90 SE 9 15 29.76 1008 8 13 0.00 0.00
4:42 am 04:42 Mostly Cloudy with Mist and Fog 64 17.8 62 16.7 93 93 SSE 6 9 29.75 1007 5 8 0.00 0.00
4:53 am 04:53 Cloudy with Mist and Fog 65 18.3 63 17.2 93 93 SE 8 13 29.75 1008 6 10 0.00 0.00
5:35 am 05:35 Cloudy 68 20 66 18.9 93 93 S 9 15 29.75 1007 7 11 0.00 0.00
5:53 am 05:53 Cloudy 70 21.1 67 19.4 90 90 S 12 19 29.75 1008 10 16 0.00 0.00
6:15 am 06:15 Cloudy 71 21.7 66 18.9 84 84 S 12 19 29.75 1007 10 16 0.00 0.00
6:53 am 06:53 Mostly Cloudy 71 21.7 66 18.9 84 84 S 14 22 29.76 1008 10 16 0.00 0.00
7:48 am 07:48 Partly Cloudy 72 22 66 19 83 83 S 12 19 29.76 1008 10 16 0.00 0.00
7:53 am 07:53 Mostly Sunny 71 21.7 66 18.9 84 84 S 10 17 29.77 1008 10 16 0.00 0.00
8:53 am 08:53 Mostly Sunny 74 23.3 66 18.9 76 76 SSW 14 22 29.77 1008 10 16 0.00 0.00
9:25 am 09:25 Mostly Cloudy 75 23.9 66 18.9 74 74 S 18 30 29.77 1008 10 16 0.00 0.00
9:45 am 09:45 Partly Cloudy 76 24.4 66 18.9 72 72 SSW 20 31 29.76 1008 10 16 0.00 0.00
9:53 am 09:53 Mostly Sunny 77 25 66 18.9 69 69 SSW 23 37 29.76 1008 10 16 0.00 0.00
10:53 am 10:53 Cloudy 78 25.6 64 17.8 62 62 SW 22 35 29.78 1008 10 16 0.00 0.00
11:53 am 11:53 Mostly Cloudy 80 26.7 66 18.9 62 62 SSW 16 26 29.76 1008 10 16 0.00 0.00
12:53 pm 12:53 Mostly Cloudy 81 27.2 66 18.9 61 61 SW 17 28 29.72 1007 10 16 0.00 0.00
1:53 pm 13:53 Partly Cloudy 82 27.8 64 17.8 55 55 SW 17 28 29.70 1006 10 16 0.00 0.00
2:53 pm 14:53 Mostly Cloudy 82 27.8 65 18.3 56 56 SW 10 17 29.69 1005 10 16 0.00 0.00
3:53 pm 15:53 Mostly Sunny 81 27.2 64 17.8 57 57 SSW 16 26 29.70 1006 10 16 0.00 0.00
4:53 pm 16:53 Sunny 79 26.1 64 17.8 60 60 SW 9 15 29.71 1006 10 16 0.00 0.00
5:53 pm 17:53 Mostly Cloudy 76 24.4 63 17.2 64 64 SSW 6 9 29.72 1007 10 16 0.00 0.00
6:53 pm 18:53 Mostly Clear 74 23.3 65 18.3 74 74 SSW 7 11 29.73 1007 10 16 0.00 0.00
7:53 pm 19:53 Clear 70 21.1 65 18.3 84 84 S 6 9 29.75 1007 10 16 0.00 0.00
8:53 pm 20:53 Clear 70 21.1 66 18.9 87 87 SSE 8 13 29.75 1007 9 14 0.00 0.00
9:53 pm 21:53 Mostly Cloudy 71 21.7 67 19.4 87 87 S 8 13 29.75 1008 8 13 0.00 0.00
10:39 pm 22:39 Mostly Cloudy 71 21.7 68 20 90 90 S 8 13 29.76 1008 7 11 0.00 0.00
10:53 pm 22:53 Mostly Cloudy 71 21.7 68 20 90 90 S 8 13 29.77 1008 7 11 0.00 0.00
11:28 pm 23:28 Cloudy 72 22.2 68 20 87 87 S 9 15 29.77 1008 8 13 0.00 0.00
11:53 pm 23:53 Cloudy 72 22.2 68 20 87 87 S 5 7 29.78 1008 7 11 0.00 0.00

Powered by AerisWeather